Time,TemperatureF,DewpointF,PressureIn,WindDirection,WindDirectionDegrees,WindSpeedMPH,WindSpeedGustMPH,Humidity,HourlyPrecipIn,Conditions,Clouds,dailyrainin,SoftwareType,DateUTC
2013-06-29 00:02:00,68.3,61.2,29.59,NNW,327,0.0,0.0,78,0.00,,---,0.00,VWS V14.00,2013-06-29 05:02:00,
2013-06-29 00:07:00,68.1,61.0,29.59,NNW,327,0.0,0.0,78,0.00,,---,0.00,VWS V14.00,2013-06-29 05:07:00,
2013-06-29 00:12:00,68.1,61.0,29.59,NNW,327,0.0,0.0,78,0.00,,---,0.00,VWS V14.00,2013-06-29 05:12:00,
2013-06-29 00:18:00,67.9,61.2,29.59,NNW,327,0.0,0.0,79,0.00,,---,0.00,VWS V14.00,2013-06-29 05:18:00,
2013-06-29 00:23:00,67.8,61.4,29.59,NNW,327,0.0,0.0,80,0.00,,---,0.00,VWS V14.00,2013-06-29 05:23:00,
2013-06-29 00:28:00,67.6,61.2,29.59,NNW,327,0.0,0.0,80,0.00,,---,0.00,VWS V14.00,2013-06-29 05:28:00,
2013-06-29 00:33:00,67.4,61.4,29.59,NNW,327,0.0,0.0,81,0.00,,---,0.00,VWS V14.00,2013-06-29 05:33:00,
2013-06-29 00:38:00,67.1,61.4,29.59,NNW,327,0.0,0.0,82,0.00,,---,0.00,VWS V14.00,2013-06-29 05:38:00,
2013-06-29 00:43:00,66.8,61.5,29.59,NNW,327,0.0,0.0,83,0.00,,---,0.00,VWS V14.00,2013-06-29 05:43:00,
2013-06-29 00:49:00,66.4,61.4,29.59,NNW,327,0.0,0.0,84,0.00,,---,0.00,VWS V14.00,2013-06-29 05:49:00,
2013-06-29 00:54:00,66.3,61.7,29.58,NNW,327,0.0,0.0,85,0.00,,---,0.00,VWS V14.00,2013-06-29 05:54:00,
2013-06-29 00:59:00,66.0,61.7,29.58,NNW,327,0.0,0.0,86,0.00,,---,0.00,VWS V14.00,2013-06-29 05:59:00,
2013-06-29 01:04:00,65.8,61.5,29.58,NNW,327,2.0,3.0,86,0.00,,---,0.00,VWS V14.00,2013-06-29 06:04:00,
2013-06-29 01:09:00,66.0,61.7,29.58,NNW,327,0.0,0.0,86,0.00,,---,0.00,VWS V14.00,2013-06-29 06:09:00,
2013-06-29 01:14:00,66.1,61.5,29.58,NNW,327,0.0,1.0,85,0.00,,---,0.00,VWS V14.00,2013-06-29 06:14:00,
2013-06-29 01:19:00,66.3,61.7,29.58,NNW,327,0.0,0.0,85,0.00,,---,0.00,VWS V14.00,2013-06-29 06:19:00,
2013-06-29 01:25:00,66.3,61.7,29.58,NNW,327,0.0,0.0,85,0.00,,---,0.00,VWS V14.00,2013-06-29 06:25:00,
2013-06-29 01:30:00,66.1,61.5,29.58,NNW,327,0.0,1.0,85,0.00,,---,0.00,VWS V14.00,2013-06-29 06:30:00,
2013-06-29 01:35:00,66.0,61.7,29.58,NNW,327,1.0,3.0,86,0.00,,---,0.00,VWS V14.00,2013-06-29 06:35:00,
2013-06-29 01:40:00,66.0,61.7,29.58,NNW,327,2.0,3.0,86,0.00,,---,0.00,VWS V14.00,2013-06-29 06:40:00,
2013-06-29 01:45:00,66.0,61.4,29.58,NNW,327,2.0,4.0,85,0.00,,---,0.00,VWS V14.00,2013-06-29 06:45:00,
2013-06-29 01:50:00,66.0,61.4,29.58,NNW,327,3.0,3.0,85,0.00,,---,0.00,VWS V14.00,2013-06-29 06:50:00,
2013-06-29 01:55:00,66.1,61.5,29.58,NNW,327,1.0,4.0,85,0.00,,---,0.00,VWS V14.00,2013-06-29 06:55:00,
2013-06-29 02:00:00,66.1,61.5,29.58,NNW,327,3.0,4.0,85,0.00,,---,0.00,VWS V14.00,2013-06-29 07:00:00,
2013-06-29 02:05:00,66.1,61.1,29.58,NNW,327,1.0,4.0,84,0.00,,---,0.00,VWS V14.00,2013-06-29 07:05:00,
2013-06-29 02:11:00,66.1,61.5,29.57,NNW,327,2.0,4.0,85,0.00,,---,0.00,VWS V14.00,2013-06-29 07:11:00,
2013-06-29 02:16:00,66.0,61.4,29.57,NNW,327,0.0,2.0,85,0.00,,---,0.00,VWS V14.00,2013-06-29 07:16:00,
2013-06-29 02:21:00,65.8,61.2,29.57,NNW,327,1.0,2.0,85,0.00,,---,0.00,VWS V14.00,2013-06-29 07:21:00,
2013-06-29 02:26:00,65.8,61.5,29.57,NNW,327,0.0,0.0,86,0.00,,---,0.00,VWS V14.00,2013-06-29 07:26:00,
2013-06-29 02:31:00,65.6,61.6,29.57,NNW,327,1.0,1.0,87,0.00,,---,0.00,VWS V14.00,2013-06-29 07:31:00,
2013-06-29 02:36:00,65.5,61.5,29.57,NNW,327,0.0,2.0,87,0.00,,---,0.00,VWS V14.00,2013-06-29 07:36:00,
2013-06-29 02:41:00,65.3,61.7,29.57,NNW,327,0.0,0.0,88,0.00,,---,0.00,VWS V14.00,2013-06-29 07:41:00,
2013-06-29 02:46:00,65.2,61.6,29.57,NNW,327,0.0,0.0,88,0.00,,---,0.00,VWS V14.00,2013-06-29 07:46:00,
2013-06-29 02:52:00,65.0,61.4,29.57,NNW,327,0.0,1.0,88,0.00,,---,0.00,VWS V14.00,2013-06-29 07:52:00,
2013-06-29 02:57:00,65.0,61.7,29.57,NNW,327,0.0,0.0,89,0.00,,---,0.00,VWS V14.00,2013-06-29 07:57:00,
2013-06-29 03:02:00,64.8,61.5,29.57,NNW,327,0.0,0.0,89,0.00,,---,0.00,VWS V14.00,2013-06-29 08:02:00,
2013-06-29 03:07:00,64.7,61.4,29.56,NNW,327,0.0,0.0,89,0.00,,---,0.00,VWS V14.00,2013-06-29 08:07:00,
2013-06-29 03:12:00,64.3,61.0,29.56,NNW,327,0.0,0.0,89,0.00,,---,0.00,VWS V14.00,2013-06-29 08:12:00,
2013-06-29 03:17:00,64.2,61.2,29.56,NNW,327,0.0,2.0,90,0.00,,---,0.00,VWS V14.00,2013-06-29 08:17:00,
2013-06-29 03:22:00,64.0,61.3,29.57,NNW,327,0.0,1.0,91,0.00,,---,0.00,VWS V14.00,2013-06-29 08:22:00,
2013-06-29 03:27:00,64.0,61.3,29.57,NNW,327,0.0,0.0,91,0.00,,---,0.00,VWS V14.00,2013-06-29 08:27:00,
2013-06-29 03:32:00,63.9,61.5,29.57,NNW,327,0.0,0.0,92,0.00,,---,0.00,VWS V14.00,2013-06-29 08:32:00,
2013-06-29 03:37:00,63.9,61.5,29.56,NNW,327,0.0,2.0,92,0.00,,---,0.00,VWS V14.00,2013-06-29 08:37:00,
2013-06-29 03:42:00,63.9,61.5,29.56,NNW,327,1.0,1.0,92,0.00,,---,0.00,VWS V14.00,2013-06-29 08:42:00,
2013-06-29 03:47:00,63.9,61.5,29.56,NNW,327,1.0,1.0,92,0.00,,---,0.00,VWS V14.00,2013-06-29 08:47:00,
2013-06-29 03:52:00,64.0,61.6,29.57,NNW,327,0.0,2.0,92,0.00,,---,0.00,VWS V14.00,2013-06-29 08:52:00,
2013-06-29 03:57:00,64.0,61.6,29.57,NNW,327,0.0,2.0,92,0.00,,---,0.00,VWS V14.00,2013-06-29 08:57:00,
2013-06-29 04:02:00,64.0,61.3,29.57,NNW,327,1.0,3.0,91,0.00,,---,0.00,VWS V14.00,2013-06-29 09:02:00,
2013-06-29 04:08:00,64.2,61.5,29.57,NNW,327,2.0,4.0,91,0.00,,---,0.00,VWS V14.00,2013-06-29 09:08:00,
2013-06-29 04:13:00,64.2,61.5,29.57,NNW,327,2.0,5.0,91,0.00,,---,0.00,VWS V14.00,2013-06-29 09:13:00,
2013-06-29 04:18:00,64.3,61.3,29.57,NNW,327,1.0,3.0,90,0.00,,---,0.00,VWS V14.00,2013-06-29 09:18:00,
2013-06-29 04:23:00,64.3,61.3,29.57,NNW,327,3.0,4.0,90,0.00,,---,0.00,VWS V14.00,2013-06-29 09:23:00,
2013-06-29 04:28:00,64.3,61.3,29.57,NNW,327,3.0,3.0,90,0.00,,---,0.00,VWS V14.00,2013-06-29 09:28:00,
2013-06-29 04:33:00,64.3,61.0,29.57,NNW,327,2.0,2.0,89,0.00,,---,0.00,VWS V14.00,2013-06-29 09:33:00,
2013-06-29 04:38:00,64.3,61.0,29.58,NNW,327,3.0,3.0,89,0.00,,---,0.00,VWS V14.00,2013-06-29 09:38:00,
2013-06-29 04:43:00,64.2,60.9,29.58,NNW,327,2.0,3.0,89,0.00,,---,0.00,VWS V14.00,2013-06-29 09:43:00,
2013-06-29 04:49:00,64.0,61.0,29.58,NNW,327,1.0,3.0,90,0.00,,---,0.00,VWS V14.00,2013-06-29 09:49:00,
2013-06-29 04:54:00,63.9,61.2,29.58,NNW,327,1.0,4.0,91,0.00,,---,0.00,VWS V14.00,2013-06-29 09:54:00,
2013-06-29 04:59:00,63.9,61.2,29.58,NNW,327,3.0,4.0,91,0.00,,---,0.00,VWS V14.00,2013-06-29 09:59:00,
2013-06-29 05:04:00,63.9,61.2,29.58,NNW,327,5.0,7.0,91,0.00,,---,0.00,VWS V14.00,2013-06-29 10:04:00,
2013-06-29 05:09:00,63.9,61.2,29.58,NW,326,2.0,7.0,91,0.00,,---,0.00,VWS V14.00,2013-06-29 10:09:00,
2013-06-29 05:14:00,63.9,61.2,29.58,NW,326,3.0,3.0,91,0.00,,---,0.00,VWS V14.00,2013-06-29 10:14:00,
2013-06-29 05:19:00,63.7,61.0,29.58,NW,325,0.0,3.0,91,0.00,,---,0.00,VWS V14.00,2013-06-29 10:19:00,
2013-06-29 05:25:00,63.5,61.1,29.57,NW,325,0.0,0.0,92,0.00,,---,0.00,VWS V14.00,2013-06-29 10:25:00,
2013-06-29 05:30:00,63.5,61.1,29.57,NW,325,1.0,4.0,92,0.00,,---,0.00,VWS V14.00,2013-06-29 10:30:00,
2013-06-29 05:35:00,63.4,61.0,29.57,NW,325,1.0,4.0,92,0.00,,---,0.00,VWS V14.00,2013-06-29 10:35:00,
2013-06-29 05:40:00,63.2,60.8,29.58,NW,325,2.0,4.0,92,0.00,,---,0.00,VWS V14.00,2013-06-29 10:40:00,
2013-06-29 05:45:00,63.2,60.8,29.58,NW,325,2.0,3.0,92,0.00,,---,0.00,VWS V14.00,2013-06-29 10:45:00,
2013-06-29 05:50:00,63.2,61.2,29.58,NW,325,4.0,4.0,93,0.00,,---,0.00,VWS V14.00,2013-06-29 10:50:00,
2013-06-29 05:55:00,63.2,61.2,29.58,NW,325,3.0,4.0,93,0.00,,---,0.00,VWS V14.00,2013-06-29 10:55:00,
2013-06-29 06:00:00,63.2,61.2,29.58,NW,325,4.0,4.0,93,0.00,,---,0.00,VWS V14.00,2013-06-29 11:00:00,
2013-06-29 06:05:00,63.2,61.2,29.58,NW,325,1.0,2.0,93,0.00,,---,0.00,VWS V14.00,2013-06-29 11:05:00,
2013-06-29 06:10:00,63.2,61.5,29.58,NW,325,1.0,6.0,94,0.00,,---,0.00,VWS V14.00,2013-06-29 11:10:00,
2013-06-29 06:15:00,63.2,61.5,29.58,NW,325,2.0,3.0,94,0.00,,---,0.00,VWS V14.00,2013-06-29 11:15:00,
2013-06-29 06:21:00,63.2,61.5,29.58,NW,325,0.0,2.0,94,0.00,,---,0.00,VWS V14.00,2013-06-29 11:21:00,
2013-06-29 06:26:00,63.4,61.7,29.59,NW,325,2.0,4.0,94,0.00,,---,0.00,VWS V14.00,2013-06-29 11:26:00,
2013-06-29 06:31:00,63.5,61.8,29.59,NW,325,0.0,4.0,94,0.00,,---,0.00,VWS V14.00,2013-06-29 11:31:00,
2013-06-29 06:36:00,63.7,62.0,29.59,NW,325,1.0,3.0,94,0.00,,---,0.00,VWS V14.00,2013-06-29 11:36:00,
2013-06-29 06:41:00,63.7,62.0,29.58,NW,324,5.0,6.0,94,0.00,,---,0.00,VWS V14.00,2013-06-29 11:41:00,
2013-06-29 06:46:00,63.9,62.1,29.58,NW,323,3.0,6.0,94,0.00,,---,0.00,VWS V14.00,2013-06-29 11:46:00,
2013-06-29 06:51:00,64.0,62.2,29.58,NW,323,1.0,1.0,94,0.00,,---,0.00,VWS V14.00,2013-06-29 11:51:00,
2013-06-29 06:56:00,64.0,62.2,29.58,NW,323,1.0,4.0,94,0.00,,---,0.00,VWS V14.00,2013-06-29 11:56:00,
2013-06-29 07:01:00,64.2,62.4,29.58,NW,321,4.0,6.0,94,0.00,,---,0.00,VWS V14.00,2013-06-29 12:01:00,
2013-06-29 07:06:00,64.3,62.5,29.58,NW,319,6.0,7.0,94,0.00,,---,0.00,VWS V14.00,2013-06-29 12:06:00,
2013-06-29 07:12:00,64.5,62.7,29.58,NW,317,5.0,9.0,94,0.00,,---,0.00,VWS V14.00,2013-06-29 12:12:00,
2013-06-29 07:17:00,64.7,62.6,29.58,NW,311,5.0,9.0,93,0.00,,---,0.00,VWS V14.00,2013-06-29 12:17:00,
2013-06-29 07:22:00,64.7,62.6,29.58,NW,309,2.0,9.0,93,0.00,,---,0.00,VWS V14.00,2013-06-29 12:22:00,
2013-06-29 07:27:00,64.7,62.6,29.58,NW,308,1.0,4.0,93,0.00,,---,0.00,VWS V14.00,2013-06-29 12:27:00,
2013-06-29 07:32:00,64.8,62.7,29.58,NW,306,0.0,1.0,93,0.00,,---,0.00,VWS V14.00,2013-06-29 12:32:00,
2013-06-29 07:37:00,65.2,63.1,29.58,NW,306,5.0,5.0,93,0.00,,---,0.00,VWS V14.00,2013-06-29 12:37:00,
2013-06-29 07:42:00,65.3,62.9,29.58,NW,305,3.0,4.0,92,0.00,,---,0.00,VWS V14.00,2013-06-29 12:42:00,
2013-06-29 07:47:00,65.6,63.2,29.58,NW,305,0.0,3.0,92,0.00,,---,0.00,VWS V14.00,2013-06-29 12:47:00,
2013-06-29 07:52:00,65.8,63.1,29.58,WNW,301,5.0,9.0,91,0.00,,---,0.00,VWS V14.00,2013-06-29 12:52:00,
2013-06-29 07:57:00,66.1,63.4,29.58,WNW,300,0.0,4.0,91,0.00,,---,0.00,VWS V14.00,2013-06-29 12:57:00,
2013-06-29 08:02:00,66.4,63.4,29.58,WNW,300,5.0,7.0,90,0.00,,---,0.00,VWS V14.00,2013-06-29 13:02:00,
2013-06-29 08:07:00,66.6,63.6,29.58,WNW,300,2.0,3.0,90,0.00,,---,0.00,VWS V14.00,2013-06-29 13:07:00,
2013-06-29 08:13:00,66.9,63.9,29.58,WNW,300,1.0,3.0,90,0.00,,---,0.00,VWS V14.00,2013-06-29 13:13:00,
2013-06-29 08:18:00,67.1,63.8,29.58,WNW,299,3.0,9.0,89,0.00,,---,0.00,VWS V14.00,2013-06-29 13:18:00,
2013-06-29 08:23:00,67.1,63.8,29.58,WNW,298,5.0,7.0,89,0.00,,---,0.00,VWS V14.00,2013-06-29 13:23:00,
2013-06-29 08:28:00,67.3,64.3,29.58,WNW,297,0.0,3.0,90,0.00,,---,0.00,VWS V14.00,2013-06-29 13:28:00,
2013-06-29 08:33:00,67.6,63.9,29.58,WNW,296,5.0,7.0,88,0.00,,---,0.00,VWS V14.00,2013-06-29 13:33:00,
2013-06-29 08:38:00,67.6,63.9,29.58,WNW,293,5.0,9.0,88,0.00,,---,0.00,VWS V14.00,2013-06-29 13:38:00,
2013-06-29 08:43:00,67.6,64.2,29.58,WNW,293,5.0,6.0,89,0.00,,---,0.00,VWS V14.00,2013-06-29 13:43:00,
2013-06-29 08:48:00,67.6,63.9,29.58,WNW,292,5.0,9.0,88,0.00,,---,0.00,VWS V14.00,2013-06-29 13:48:00,
2013-06-29 08:53:00,67.8,64.1,29.58,WNW,292,5.0,8.0,88,0.00,,---,0.00,VWS V14.00,2013-06-29 13:53:00,
2013-06-29 08:58:00,67.8,64.1,29.58,WNW,293,0.0,4.0,88,0.00,,---,0.00,VWS V14.00,2013-06-29 13:58:00,
2013-06-29 09:04:00,67.9,64.2,29.58,WNW,293,0.0,3.0,88,0.00,,---,0.00,VWS V14.00,2013-06-29 14:04:00,
2013-06-29 09:09:00,68.3,64.6,29.58,WNW,293,5.0,6.0,88,0.00,,---,0.00,VWS V14.00,2013-06-29 14:09:00,
2013-06-29 09:14:00,68.1,63.8,29.58,WNW,293,0.0,5.0,86,0.00,,---,0.00,VWS V14.00,2013-06-29 14:14:00,
2013-06-29 09:19:00,67.9,63.6,29.58,WNW,293,0.0,0.0,86,0.00,,---,0.00,VWS V14.00,2013-06-29 14:19:00,
2013-06-29 09:24:00,67.9,63.9,29.58,WNW,293,0.0,3.0,87,0.00,,---,0.00,VWS V14.00,2013-06-29 14:24:00,
2013-06-29 09:29:00,67.9,63.9,29.58,WNW,293,1.0,3.0,87,0.00,,---,0.00,VWS V14.00,2013-06-29 14:29:00,
2013-06-29 09:34:00,68.1,64.1,29.58,WNW,293,0.0,2.0,87,0.00,,---,0.00,VWS V14.00,2013-06-29 14:34:00,
2013-06-29 09:39:00,68.4,64.4,29.58,WNW,293,1.0,5.0,87,0.00,,---,0.00,VWS V14.00,2013-06-29 14:39:00,
2013-06-29 09:45:00,68.6,64.6,29.58,WNW,293,6.0,6.0,87,0.00,,---,0.00,VWS V14.00,2013-06-29 14:45:00,
2013-06-29 09:50:00,68.4,63.7,29.58,WNW,293,1.0,2.0,85,0.00,,---,0.00,VWS V14.00,2013-06-29 14:50:00,
2013-06-29 09:55:00,68.4,64.1,29.58,WNW,293,1.0,4.0,86,0.00,,---,0.00,VWS V14.00,2013-06-29 14:55:00,
2013-06-29 10:00:00,68.3,64.3,29.58,WNW,293,2.0,2.0,87,0.00,,---,0.00,VWS V14.00,2013-06-29 15:00:00,
2013-06-29 10:05:00,68.1,64.4,29.58,WNW,293,0.0,3.0,88,0.00,,---,0.00,VWS V14.00,2013-06-29 15:05:00,
2013-06-29 10:10:00,68.3,64.6,29.58,WNW,292,1.0,6.0,88,0.00,,---,0.00,VWS V14.00,2013-06-29 15:10:00,
2013-06-29 10:15:00,68.3,64.9,29.58,WNW,292,3.0,3.0,89,0.00,,---,0.00,VWS V14.00,2013-06-29 15:15:00,
2013-06-29 10:20:00,68.4,64.7,29.58,WNW,292,1.0,7.0,88,0.00,,---,0.00,VWS V14.00,2013-06-29 15:20:00,
2013-06-29 10:25:00,68.6,65.2,29.58,WNW,292,0.0,1.0,89,0.00,,---,0.00,VWS V14.00,2013-06-29 15:25:00,
2013-06-29 10:30:00,68.8,65.4,29.58,WNW,292,0.0,0.0,89,0.00,,---,0.00,VWS V14.00,2013-06-29 15:30:00,
2013-06-29 10:35:00,69.1,65.7,29.58,WNW,292,0.0,0.0,89,0.00,,---,0.00,VWS V14.00,2013-06-29 15:35:00,
2013-06-29 10:40:00,69.1,65.1,29.58,WNW,293,3.0,8.0,87,0.00,,---,0.00,VWS V14.00,2013-06-29 15:40:00,
2013-06-29 10:46:00,69.3,64.6,29.58,WNW,292,3.0,5.0,85,0.00,,---,0.00,VWS V14.00,2013-06-29 15:46:00,
2013-06-29 10:51:00,69.4,64.4,29.58,WNW,292,2.0,4.0,84,0.00,,---,0.00,VWS V14.00,2013-06-29 15:51:00,
2013-06-29 10:56:00,69.8,65.1,29.58,WNW,292,4.0,6.0,85,0.00,,---,0.00,VWS V14.00,2013-06-29 15:56:00,
2013-06-29 11:01:00,70.3,65.2,29.58,WNW,292,3.0,3.0,84,0.00,,---,0.00,VWS V14.00,2013-06-29 16:01:00,
2013-06-29 11:06:00,70.8,64.7,29.58,WNW,292,4.0,7.0,81,0.00,,---,0.00,VWS V14.00,2013-06-29 16:06:00,
2013-06-29 11:11:00,71.5,65.4,29.57,WNW,293,5.0,8.0,81,0.00,,---,0.00,VWS V14.00,2013-06-29 16:11:00,
2013-06-29 11:16:00,72.3,65.8,29.57,WNW,293,1.0,2.0,80,0.00,,---,0.00,VWS V14.00,2013-06-29 16:16:00,
2013-06-29 11:21:00,72.3,64.7,29.57,WNW,293,0.0,2.0,77,0.00,,---,0.00,VWS V14.00,2013-06-29 16:21:00,
2013-06-29 11:26:00,71.5,63.9,29.57,WNW,290,1.0,6.0,77,0.00,,---,0.00,VWS V14.00,2013-06-29 16:26:00,
2013-06-29 11:31:00,71.1,64.3,29.57,WNW,290,1.0,4.0,79,0.00,,---,0.00,VWS V14.00,2013-06-29 16:31:00,
2013-06-29 11:36:00,70.8,64.0,29.57,WNW,290,3.0,4.0,79,0.00,,---,0.00,VWS V14.00,2013-06-29 16:36:00,
2013-06-29 11:41:00,71.1,65.0,29.57,WNW,290,1.0,3.0,81,0.00,,---,0.00,VWS V14.00,2013-06-29 16:41:00,
2013-06-29 11:46:00,71.3,64.1,29.57,WNW,290,1.0,7.0,78,0.00,,---,0.00,VWS V14.00,2013-06-29 16:46:00,
2013-06-29 11:52:00,71.5,64.7,29.57,WNW,290,2.0,3.0,79,0.00,,---,0.00,VWS V14.00,2013-06-29 16:52:00,
2013-06-29 11:57:00,71.8,64.6,29.57,WNW,290,0.0,3.0,78,0.00,,---,0.00,VWS V14.00,2013-06-29 16:57:00,
2013-06-29 12:02:00,72.5,65.6,29.57,WNW,290,3.0,3.0,79,0.00,,---,0.00,VWS V14.00,2013-06-29 17:02:00,
2013-06-29 12:07:00,72.5,64.5,29.58,WNW,291,3.0,5.0,76,0.00,,---,0.00,VWS V14.00,2013-06-29 17:07:00,
2013-06-29 12:12:00,72.1,65.6,29.58,WNW,291,0.0,2.0,80,0.00,,---,0.00,VWS V14.00,2013-06-29 17:12:00,
2013-06-29 12:17:00,71.8,65.7,29.58,WNW,291,0.0,2.0,81,0.00,,---,0.00,VWS V14.00,2013-06-29 17:17:00,
2013-06-29 12:22:00,71.6,65.8,29.57,WNW,291,1.0,3.0,82,0.00,,---,0.00,VWS V14.00,2013-06-29 17:22:00,
2013-06-29 12:27:00,71.8,66.4,29.57,WNW,291,0.0,0.0,83,0.00,,---,0.00,VWS V14.00,2013-06-29 17:27:00,
2013-06-29 12:32:00,72.7,67.9,29.57,WNW,291,0.0,1.0,85,0.00,,---,0.00,VWS V14.00,2013-06-29 17:32:00,
2013-06-29 12:37:00,73.5,67.7,29.57,WNW,291,0.0,2.0,82,0.00,,---,0.00,VWS V14.00,2013-06-29 17:37:00,
2013-06-29 12:42:00,74.0,67.1,29.57,WNW,291,1.0,4.0,79,0.00,,---,0.00,VWS V14.00,2013-06-29 17:42:00,
2013-06-29 12:47:00,74.6,65.8,29.57,WNW,291,2.0,4.0,74,0.00,,---,0.00,VWS V14.00,2013-06-29 17:47:00,
2013-06-29 12:53:00,74.9,66.8,29.57,WNW,291,0.0,1.0,76,0.00,,---,0.00,VWS V14.00,2013-06-29 17:53:00,
2013-06-29 12:58:00,74.9,64.5,29.57,WNW,296,2.0,5.0,70,0.00,,---,0.00,VWS V14.00,2013-06-29 17:58:00,
2013-06-29 13:03:00,73.7,63.3,29.57,NNW,329,9.0,11.0,70,0.00,,---,0.00,VWS V14.00,2013-06-29 18:03:00,
2013-06-29 13:08:00,70.8,62.1,29.59,NW,313,2.0,7.0,74,0.00,,---,0.00,VWS V14.00,2013-06-29 18:08:00,
2013-06-29 13:13:00,68.4,60.9,29.59,NNE,20,2.0,10.0,77,0.00,,---,0.00,VWS V14.00,2013-06-29 18:13:00,
2013-06-29 13:18:00,66.9,60.9,29.59,NNE,20,0.0,0.0,81,0.00,,---,0.00,VWS V14.00,2013-06-29 18:18:00,
2013-06-29 13:23:00,66.1,61.1,29.59,NNE,20,0.0,0.0,84,0.00,,---,0.00,VWS V14.00,2013-06-29 18:23:00,
2013-06-29 13:28:00,66.1,62.1,29.59,NNE,20,0.0,0.0,87,0.00,,---,0.00,VWS V14.00,2013-06-29 18:28:00,
2013-06-29 13:33:00,66.1,62.8,29.59,NNE,20,0.0,0.0,89,0.00,,---,0.00,VWS V14.00,2013-06-29 18:33:00,
2013-06-29 13:38:00,66.3,63.6,29.58,NNE,20,0.0,0.0,91,0.00,,---,0.00,VWS V14.00,2013-06-29 18:38:00,
2013-06-29 13:43:00,66.3,63.9,29.58,NNE,20,0.0,0.0,92,0.00,,---,0.00,VWS V14.00,2013-06-29 18:43:00,
2013-06-29 13:48:00,66.3,63.9,29.58,NNE,20,0.0,1.0,92,0.00,,---,0.00,VWS V14.00,2013-06-29 18:48:00,
2013-06-29 13:53:00,66.4,64.3,29.59,NNE,20,0.0,0.0,93,0.00,,---,0.00,VWS V14.00,2013-06-29 18:53:00,
2013-06-29 13:59:00,66.3,64.2,29.59,NNE,19,1.0,3.0,93,0.00,,---,0.00,VWS V14.00,2013-06-29 18:59:00,
2013-06-29 14:04:00,66.1,64.0,29.59,NNE,19,1.0,1.0,93,0.00,,---,0.00,VWS V14.00,2013-06-29 19:04:00,
2013-06-29 14:09:00,65.8,63.7,29.59,NNE,15,1.0,6.0,93,0.00,,---,0.00,VWS V14.00,2013-06-29 19:09:00,
2013-06-29 14:14:00,65.6,63.8,29.59,NNW,344,1.0,3.0,94,0.00,,---,0.00,VWS V14.00,2013-06-29 19:14:00,
2013-06-29 14:19:00,65.6,63.8,29.59,NNW,342,0.0,2.0,94,0.00,,---,0.00,VWS V14.00,2013-06-29 19:19:00,
2013-06-29 14:24:00,65.8,64.0,29.60,NNW,342,0.0,0.0,94,0.00,,---,0.00,VWS V14.00,2013-06-29 19:24:00,
2013-06-29 14:29:00,66.0,64.5,29.60,NNW,342,1.0,1.0,95,0.00,,---,0.00,VWS V14.00,2013-06-29 19:29:00,
2013-06-29 14:34:00,66.1,64.3,29.60,NNW,342,0.0,0.0,94,0.00,,---,0.00,VWS V14.00,2013-06-29 19:34:00,
2013-06-29 14:39:00,66.1,64.3,29.61,NNW,342,1.0,4.0,94,0.00,,---,0.00,VWS V14.00,2013-06-29 19:39:00,
2013-06-29 14:44:00,66.3,64.2,29.61,NNW,338,4.0,6.0,93,0.00,,---,0.00,VWS V14.00,2013-06-29 19:44:00,
2013-06-29 14:49:00,66.3,64.2,29.61,NNW,337,0.0,0.0,93,0.00,,---,0.00,VWS V14.00,2013-06-29 19:49:00,
2013-06-29 14:54:00,66.6,64.5,29.61,NNW,337,1.0,1.0,93,0.00,,---,0.00,VWS V14.00,2013-06-29 19:54:00,
2013-06-29 14:59:00,66.9,64.8,29.61,NNW,334,1.0,1.0,93,0.00,,---,0.00,VWS V14.00,2013-06-29 19:59:00,
2013-06-29 15:05:00,67.1,64.7,29.61,NNW,333,1.0,3.0,92,0.00,,---,0.00,VWS V14.00,2013-06-29 20:05:00,
2013-06-29 15:10:00,67.3,64.9,29.60,NNW,332,0.0,2.0,92,0.00,,---,0.00,VWS V14.00,2013-06-29 20:10:00,
2013-06-29 15:15:00,67.6,64.9,29.60,NNW,331,0.0,1.0,91,0.00,,---,0.00,VWS V14.00,2013-06-29 20:15:00,
2013-06-29 15:20:00,67.9,65.2,29.60,NNW,331,0.0,3.0,91,0.00,,---,0.00,VWS V14.00,2013-06-29 20:20:00,
2013-06-29 15:25:00,68.3,65.9,29.60,NNW,331,2.0,4.0,92,0.00,,---,0.00,VWS V14.00,2013-06-29 20:25:00,
2013-06-29 15:30:00,68.6,65.9,29.60,NNW,331,0.0,4.0,91,0.00,,---,0.00,VWS V14.00,2013-06-29 20:30:00,
2013-06-29 15:35:00,68.9,65.8,29.60,NNW,331,0.0,1.0,90,0.00,,---,0.00,VWS V14.00,2013-06-29 20:35:00,
2013-06-29 15:40:00,69.1,66.1,29.60,NNW,331,0.0,2.0,90,0.00,,---,0.00,VWS V14.00,2013-06-29 20:40:00,
2013-06-29 15:41:00,69.1,65.7,29.60,NNW,331,1.0,3.0,89,0.00,,---,0.00,VWS V14.00,2013-06-29 20:41:00,
2013-06-29 15:46:00,69.3,65.6,29.60,NNW,331,0.0,0.0,88,0.00,,---,0.00,VWS V14.00,2013-06-29 20:46:00,
2013-06-29 15:51:00,69.6,65.9,29.60,WSW,253,0.0,0.0,88,0.00,,---,0.00,VWS V14.00,2013-06-29 20:51:00,
2013-06-29 15:56:00,70.1,65.7,29.59,WSW,253,0.0,0.0,86,0.00,,---,0.00,VWS V14.00,2013-06-29 20:56:00,
2013-06-29 16:01:00,70.4,66.0,29.59,WSW,253,0.0,2.0,86,0.00,,---,0.00,VWS V14.00,2013-06-29 21:01:00,
2013-06-29 16:06:00,70.4,65.0,29.59,WSW,254,1.0,2.0,83,0.00,,---,0.00,VWS V14.00,2013-06-29 21:06:00,
2013-06-29 16:11:00,70.9,65.5,29.59,WSW,255,2.0,4.0,83,0.00,,---,0.00,VWS V14.00,2013-06-29 21:11:00,
2013-06-29 16:17:00,71.5,66.1,29.59,West,259,1.0,1.0,83,0.00,,---,0.00,VWS V14.00,2013-06-29 21:17:00,
2013-06-29 16:22:00,72.3,65.4,29.58,West,259,1.0,3.0,79,0.00,,---,0.00,VWS V14.00,2013-06-29 21:22:00,
2013-06-29 16:27:00,72.8,64.0,29.58,North,350,1.0,4.0,74,0.00,,---,0.00,VWS V14.00,2013-06-29 21:27:00,
2013-06-29 16:32:00,73.3,65.3,29.58,NW,321,2.0,2.0,76,0.00,,---,0.00,VWS V14.00,2013-06-29 21:32:00,
2013-06-29 16:37:00,74.0,66.0,29.58,NW,321,1.0,3.0,76,0.00,,---,0.00,VWS V14.00,2013-06-29 21:37:00,
2013-06-29 16:42:00,74.2,65.4,29.58,NNW,333,4.0,5.0,74,0.00,,---,0.00,VWS V14.00,2013-06-29 21:42:00,
2013-06-29 16:47:00,74.2,65.8,29.58,NNW,338,1.0,2.0,75,0.00,,---,0.00,VWS V14.00,2013-06-29 21:47:00,
2013-06-29 16:52:00,74.6,66.2,29.58,NNW,339,3.0,5.0,75,0.00,,---,0.00,VWS V14.00,2013-06-29 21:52:00,
2013-06-29 16:57:00,74.6,66.5,29.58,NNW,339,0.0,2.0,76,0.00,,---,0.00,VWS V14.00,2013-06-29 21:57:00,
2013-06-29 17:02:00,74.6,65.8,29.58,NNW,341,5.0,5.0,74,0.00,,---,0.00,VWS V14.00,2013-06-29 22:02:00,
2013-06-29 17:07:00,73.9,64.7,29.58,North,351,4.0,7.0,73,0.00,,---,0.00,VWS V14.00,2013-06-29 22:07:00,
2013-06-29 17:12:00,72.7,64.3,29.58,North,10,4.0,7.0,75,0.00,,---,0.00,VWS V14.00,2013-06-29 22:12:00,
2013-06-29 17:18:00,71.6,63.6,29.58,NNE,18,6.0,6.0,76,0.00,,---,0.00,VWS V14.00,2013-06-29 22:18:00,
2013-06-29 17:23:00,71.3,64.1,29.59,NNE,17,1.0,10.0,78,0.00,,---,0.00,VWS V14.00,2013-06-29 22:23:00,
2013-06-29 17:28:00,71.1,63.9,29.59,NNE,17,2.0,5.0,78,0.00,,---,0.00,VWS V14.00,2013-06-29 22:28:00,
2013-06-29 17:33:00,71.1,63.9,29.59,NNE,17,5.0,6.0,78,0.00,,---,0.00,VWS V14.00,2013-06-29 22:33:00,
2013-06-29 17:38:00,70.9,63.7,29.59,NNE,16,2.0,5.0,78,0.00,,---,0.00,VWS V14.00,2013-06-29 22:38:00,
2013-06-29 17:43:00,70.6,64.1,29.59,NNE,16,6.0,6.0,80,0.00,,---,0.00,VWS V14.00,2013-06-29 22:43:00,
2013-06-29 17:48:00,69.9,63.1,29.59,NNE,17,3.0,5.0,79,0.00,,---,0.00,VWS V14.00,2013-06-29 22:48:00,
2013-06-29 17:53:00,69.6,63.5,29.60,NNE,16,1.0,5.0,81,0.00,,---,0.00,VWS V14.00,2013-06-29 22:53:00,
2013-06-29 17:58:00,69.3,63.2,29.60,NNE,17,3.0,4.0,81,0.00,,---,0.00,VWS V14.00,2013-06-29 22:58:00,
2013-06-29 18:03:00,68.9,63.5,29.60,NNE,17,2.0,4.0,83,0.00,,---,0.00,VWS V14.00,2013-06-29 23:03:00,
2013-06-29 18:04:00,68.9,63.5,29.60,NNE,17,2.0,3.0,83,0.00,,---,0.00,VWS V14.00,2013-06-29 23:04:00,
2013-06-29 18:09:00,68.8,63.8,29.60,NNE,17,0.0,1.0,84,0.00,,---,0.00,VWS V14.00,2013-06-29 23:09:00,
2013-06-29 18:14:00,68.9,63.9,29.60,NNE,17,2.0,5.0,84,0.00,,---,0.00,VWS V14.00,2013-06-29 23:14:00,
2013-06-29 18:19:00,68.6,63.2,29.60,NNE,16,2.0,3.0,83,0.00,,---,0.00,VWS V14.00,2013-06-29 23:19:00,
2013-06-29 18:24:00,68.6,63.2,29.61,NNE,16,8.0,8.0,83,0.00,,---,0.00,VWS V14.00,2013-06-29 23:24:00,
2013-06-29 18:29:00,68.6,62.9,29.61,NNE,17,4.0,6.0,82,0.00,,---,0.00,VWS V14.00,2013-06-29 23:29:00,
2013-06-29 18:35:00,68.8,63.1,29.61,NNE,17,3.0,4.0,82,0.00,,---,0.00,VWS V14.00,2013-06-29 23:35:00,
2013-06-29 18:40:00,68.8,63.4,29.62,NNE,17,4.0,5.0,83,0.00,,---,0.00,VWS V14.00,2013-06-29 23:40:00,
2013-06-29 18:45:00,68.6,63.2,29.62,NNE,19,6.0,9.0,83,0.00,,---,0.00,VWS V14.00,2013-06-29 23:45:00,
2013-06-29 18:50:00,68.3,62.9,29.62,NNE,23,6.0,10.0,83,0.00,,---,0.00,VWS V14.00,2013-06-29 23:50:00,
2013-06-29 18:55:00,68.1,62.8,29.62,NNE,23,5.0,6.0,83,0.00,,---,0.00,VWS V14.00,2013-06-29 23:55:00,
2013-06-29 19:00:00,68.1,63.1,29.62,NNE,23,5.0,6.0,84,0.00,,---,0.00,VWS V14.00,2013-06-30 00:00:00,
2013-06-29 19:05:00,68.1,63.1,29.62,NNE,23,5.0,5.0,84,0.00,,---,0.00,VWS V14.00,2013-06-30 00:05:00,
2013-06-29 19:10:00,68.3,63.3,29.62,NNE,24,3.0,4.0,84,0.00,,---,0.00,VWS V14.00,2013-06-30 00:10:00,
2013-06-29 19:15:00,68.3,63.3,29.62,NNE,22,5.0,10.0,84,0.00,,---,0.00,VWS V14.00,2013-06-30 00:15:00,
2013-06-29 19:21:00,68.3,63.6,29.62,NNE,22,1.0,7.0,85,0.00,,---,0.00,VWS V14.00,2013-06-30 00:21:00,
2013-06-29 19:26:00,68.1,63.4,29.63,NNE,22,1.0,3.0,85,0.00,,---,0.00,VWS V14.00,2013-06-30 00:26:00,
2013-06-29 19:31:00,67.9,63.6,29.63,NNE,22,3.0,4.0,86,0.00,,---,0.00,VWS V14.00,2013-06-30 00:31:00,
2013-06-29 19:36:00,67.6,63.6,29.63,NNE,22,2.0,3.0,87,0.00,,---,0.00,VWS V14.00,2013-06-30 00:36:00,
2013-06-29 19:41:00,67.6,63.9,29.63,NNE,22,0.0,3.0,88,0.00,,---,0.00,VWS V14.00,2013-06-30 00:41:00,
2013-06-29 19:46:00,67.3,63.6,29.63,NNE,22,2.0,2.0,88,0.00,,---,0.00,VWS V14.00,2013-06-30 00:46:00,
2013-06-29 19:51:00,67.3,64.0,29.63,NNE,22,3.0,4.0,89,0.00,,---,0.00,VWS V14.00,2013-06-30 00:51:00,
2013-06-29 19:56:00,67.1,63.8,29.64,NNE,22,3.0,6.0,89,0.00,,---,0.00,VWS V14.00,2013-06-30 00:56:00,
2013-06-29 20:01:00,66.9,63.6,29.64,NNE,22,0.0,3.0,89,0.00,,---,0.00,VWS V14.00,2013-06-30 01:01:00,
2013-06-29 20:06:00,66.9,63.6,29.64,NNE,22,2.0,4.0,89,0.00,,---,0.00,VWS V14.00,2013-06-30 01:06:00,
2013-06-29 20:11:00,66.8,63.5,29.64,NNE,22,0.0,4.0,89,0.00,,---,0.00,VWS V14.00,2013-06-30 01:11:00,
2013-06-29 20:17:00,66.8,63.5,29.64,NNE,22,3.0,5.0,89,0.00,,---,0.00,VWS V14.00,2013-06-30 01:17:00,
2013-06-29 20:22:00,66.8,63.5,29.64,NNE,22,3.0,3.0,89,0.00,,---,0.00,VWS V14.00,2013-06-30 01:22:00,
2013-06-29 20:27:00,66.6,63.3,29.64,NNE,22,5.0,5.0,89,0.00,,---,0.00,VWS V14.00,2013-06-30 01:27:00,
2013-06-29 20:32:00,66.6,63.3,29.64,NNE,22,0.0,0.0,89,0.00,,---,0.00,VWS V14.00,2013-06-30 01:32:00,
2013-06-29 20:37:00,66.6,63.3,29.65,NNE,22,6.0,7.0,89,0.00,,---,0.00,VWS V14.00,2013-06-30 01:37:00,
2013-06-29 20:42:00,66.4,63.1,29.65,NNE,22,4.0,4.0,89,0.00,,---,0.00,VWS V14.00,2013-06-30 01:42:00,
2013-06-29 20:47:00,66.4,63.1,29.65,NNE,22,2.0,5.0,89,0.00,,---,0.00,VWS V14.00,2013-06-30 01:47:00,
2013-06-29 20:52:00,66.4,63.1,29.65,NNE,22,6.0,9.0,89,0.00,,---,0.00,VWS V14.00,2013-06-30 01:52:00,
2013-06-29 20:57:00,66.4,63.1,29.65,NNE,22,2.0,2.0,89,0.00,,---,0.00,VWS V14.00,2013-06-30 01:57:00,
2013-06-29 21:02:00,66.3,63.0,29.65,NNE,22,0.0,4.0,89,0.00,,---,0.00,VWS V14.00,2013-06-30 02:02:00,
2013-06-29 21:07:00,66.3,63.0,29.66,NNE,22,2.0,4.0,89,0.00,,---,0.00,VWS V14.00,2013-06-30 02:07:00,
2013-06-29 21:12:00,66.3,63.0,29.66,NNE,22,3.0,6.0,89,0.00,,---,0.00,VWS V14.00,2013-06-30 02:12:00,
2013-06-29 21:17:00,66.3,63.0,29.66,NNE,22,4.0,5.0,89,0.00,,---,0.00,VWS V14.00,2013-06-30 02:17:00,
2013-06-29 21:22:00,66.1,62.8,29.67,NNE,22,3.0,3.0,89,0.00,,---,0.00,VWS V14.00,2013-06-30 02:22:00,
2013-06-29 21:28:00,66.1,62.8,29.67,NNE,22,2.0,4.0,89,0.00,,---,0.00,VWS V14.00,2013-06-30 02:28:00,
2013-06-29 21:33:00,66.1,62.8,29.67,NNE,22,4.0,5.0,89,0.00,,---,0.00,VWS V14.00,2013-06-30 02:33:00,
2013-06-29 21:38:00,66.1,62.8,29.67,NNE,22,5.0,5.0,89,0.00,,---,0.00,VWS V14.00,2013-06-30 02:38:00,
2013-06-29 21:43:00,66.1,62.8,29.67,NNE,22,3.0,4.0,89,0.00,,---,0.00,VWS V14.00,2013-06-30 02:43:00,
2013-06-29 21:48:00,66.0,62.3,29.67,NNE,21,4.0,6.0,88,0.00,,---,0.00,VWS V14.00,2013-06-30 02:48:00,
2013-06-29 21:53:00,66.0,62.3,29.68,NNE,21,6.0,7.0,88,0.00,,---,0.00,VWS V14.00,2013-06-30 02:53:00,
2013-06-29 21:58:00,66.0,62.0,29.68,NNE,21,4.0,5.0,87,0.00,,---,0.00,VWS V14.00,2013-06-30 02:58:00,
2013-06-29 22:03:00,65.8,61.8,29.68,NNE,22,4.0,6.0,87,0.00,,---,0.00,VWS V14.00,2013-06-30 03:03:00,
2013-06-29 22:08:00,65.8,61.8,29.68,NNE,22,3.0,5.0,87,0.00,,---,0.00,VWS V14.00,2013-06-30 03:08:00,
2013-06-29 22:13:00,65.6,61.3,29.68,NNE,22,3.0,6.0,86,0.00,,---,0.00,VWS V14.00,2013-06-30 03:13:00,
2013-06-29 22:18:00,65.5,60.9,29.68,NNE,22,6.0,6.0,85,0.00,,---,0.00,VWS V14.00,2013-06-30 03:18:00,
2013-06-29 22:23:00,65.3,60.0,29.68,NNE,23,5.0,5.0,83,0.00,,---,0.00,VWS V14.00,2013-06-30 03:23:00,
2013-06-29 22:28:00,65.3,60.0,29.68,NNE,23,4.0,6.0,83,0.00,,---,0.00,VWS V14.00,2013-06-30 03:28:00,
2013-06-29 22:33:00,65.2,59.9,29.68,NNE,23,9.0,9.0,83,0.00,,---,0.00,VWS V14.00,2013-06-30 03:33:00,
2013-06-29 22:38:00,65.0,59.7,29.68,NNE,23,3.0,4.0,83,0.00,,---,0.00,VWS V14.00,2013-06-30 03:38:00,
2013-06-29 22:43:00,65.0,59.7,29.68,NNE,22,3.0,5.0,83,0.00,,---,0.00,VWS V14.00,2013-06-30 03:43:00,
2013-06-29 22:49:00,64.8,59.5,29.68,NNE,22,3.0,5.0,83,0.00,,---,0.00,VWS V14.00,2013-06-30 03:49:00,
2013-06-29 22:54:00,64.7,59.4,29.68,NNE,22,4.0,4.0,83,0.00,,---,0.00,VWS V14.00,2013-06-30 03:54:00,
2013-06-29 22:59:00,64.5,59.2,29.68,NNE,22,3.0,3.0,83,0.00,,---,0.00,VWS V14.00,2013-06-30 03:59:00,
2013-06-29 23:01:00,64.5,59.2,29.68,NNE,22,2.0,3.0,83,0.00,,---,0.00,VWS V14.00,2013-06-30 04:01:00,
2013-06-29 23:02:00,64.5,59.2,29.68,NNE,22,3.0,4.0,83,0.00,,---,0.00,VWS V14.00,2013-06-30 04:02:00,
2013-06-29 23:03:00,64.5,59.2,29.68,NNE,22,0.0,5.0,83,0.00,,---,0.00,VWS V14.00,2013-06-30 04:03:00,
2013-06-29 23:08:00,64.3,59.0,29.69,NNE,22,0.0,2.0,83,0.00,,---,0.00,VWS V14.00,2013-06-30 04:08:00,
2013-06-29 23:13:00,64.2,59.3,29.69,NNE,22,4.0,4.0,84,0.00,,---,0.00,VWS V14.00,2013-06-30 04:13:00,
2013-06-29 23:18:00,64.0,59.1,29.69,NNE,22,0.0,3.0,84,0.00,,---,0.00,VWS V14.00,2013-06-30 04:18:00,
2013-06-29 23:23:00,63.9,59.0,29.68,NNE,22,1.0,2.0,84,0.00,,---,0.00,VWS V14.00,2013-06-30 04:23:00,
2013-06-29 23:28:00,63.7,59.1,29.68,NNE,22,2.0,3.0,85,0.00,,---,0.00,VWS V14.00,2013-06-30 04:28:00,
2013-06-29 23:33:00,63.5,58.9,29.68,NNE,22,0.0,2.0,85,0.00,,---,0.00,VWS V14.00,2013-06-30 04:33:00,
2013-06-29 23:38:00,63.5,58.9,29.69,NNE,22,0.0,1.0,85,0.00,,---,0.00,VWS V14.00,2013-06-30 04:38:00,
2013-06-29 23:43:00,63.2,59.0,29.69,NNE,22,0.0,3.0,86,0.00,,---,0.00,VWS V14.00,2013-06-30 04:43:00,
2013-06-29 23:48:00,63.1,58.8,29.69,NNE,23,1.0,4.0,86,0.00,,---,0.00,VWS V14.00,2013-06-30 04:48:00,
2013-06-29 23:53:00,63.1,58.8,29.69,NNE,23,4.0,4.0,86,0.00,,---,0.00,VWS V14.00,2013-06-30 04:53:00,
2013-06-29 23:58:00,62.9,58.7,29.69,NNE,23,0.0,4.0,86,0.00,,---,0.00,VWS V14.00,2013-06-30 04:58:00,